Location: Glash�tte
(49.1333°N, 7.6167°E)
Time: 05:05:23
(UTC+00:00)

Daily predictions for brighter satellites

Satellite Brightness Start Highest point End
(mag) Time Altitude Azimuth Time Altitude Azimuth Time Altitude Azimuth
Cosmos 1943 Rocket 4.4 02:13:49 19° NE 02:13:49 19° NE 02:17:14 10° E
SL-16 R/B 4.1 02:33:07 25° E 02:33:07 25° E 02:36:44 10° NE
Cosmos 2369 Rocket 4.2 02:38:57 19° N 02:41:25 24° NE 02:46:02 10° E
ATLAS 2AS CENTAUR R/B 4.4 02:43:18 26° NNW 02:44:47 28° N 02:51:10 10° NE
CZ-4C R/B 3.6 02:49:27 36° NE 02:49:27 36° NE 02:53:09 10° NE
ADEOS II 4.5 02:46:43 10° N 02:47:33 15° N 02:47:33 15° N
Lacrosse 5 3.8 02:56:48 25° E 02:56:48 25° E 02:58:59 10° ESE
IDEFIX/ARIANE 42P 4.2 02:50:39 10° NNE 02:53:19 30° NNE 02:53:19 30° NNE
Cosmos 2333 Rocket 4.0 03:07:47 23° N 03:07:47 23° N 03:10:18 10° NNE
CZ-2C R/B 4.0 03:05:08 10° NNE 03:09:48 33° E 03:10:46 30° ESE
BREEZE-M DEB (TANK) 3.7 03:21:49 52° E 03:21:49 52° E 03:29:03 10° E
ADEOS 4.0 03:22:39 10° NNE 03:27:38 60° E 03:27:38 60° E
Nadezhda 3 Rocket 4.4 03:33:54 51° NNW 03:33:54 51° NNW 03:38:46 10° N
Cosmos 2237 Rocket 3.1 03:34:18 38° N 03:34:18 38° N 03:38:05 10° NNE
USA 215 3.3 03:31:24 10° ENE 03:37:50 61° NNW 03:38:28 58° NW
Meteor 2-10 Rocket 3.6 03:40:28 75° ENE 03:40:28 75° ENE 03:45:27 10° NNE
Cosmos 2219 Rocket 3.9 03:42:44 21° NNW 03:42:44 21° NNW 03:45:40 10° N
ATLAS CENTAUR R/B 2.3 03:49:21 48° NNE 03:49:21 48° NNE 03:52:35 10° NE
Meteor 1-31 Rocket 4.1 03:46:26 10° NNE 03:50:00 37° E 03:50:22 36° ESE
Cosmos 1339 Rocket 4.5 03:49:40 22° S 03:53:48 76° E 03:59:56 10° NNE
Cosmos 2360 Rocket 4.4 03:55:08 11° NNW 03:55:08 11° NNW 03:56:38 10° N
MSX 3.7 03:51:29 10° N 03:57:12 68° WNW 03:57:22 68° W
Cosmos 1943 Rocket 2.1 03:55:24 34° NNW 03:57:54 82° ENE 04:03:25 10° SSE
NOSS 3-1 (A) 4.2 04:01:46 47° W 04:02:47 50° WSW 04:10:58 10° SSE
Cosmos 1356 Rocket 4.0 04:03:55 49° NNE 04:03:55 49° NNE 04:06:59 10° NNE
H-2A R/B 3.4 03:58:43 10° NNE 04:03:00 52° E 04:06:15 17° S
COSMOS 2428 4.4 04:04:38 19° NNW 04:04:38 19° NNW 04:07:59 10° N
Cosmos 1743 Rocket 3.8 04:05:02 10° N 04:09:21 66° ENE 04:13:39 10° SSE
SL-16 R/B 2.2 04:15:01 53° W 04:15:49 58° WNW 04:21:27 10° NNE
STARLINK-1162 4.2 04:22:57 36° NNE 04:22:57 36° NNE 04:25:30 10° ENE
CZ-4B R/B 4.0 04:20:02 10° NNE 04:24:22 89° E 04:27:10 22° SSW
STARLINK-1157 4.1 04:24:51 37° NNE 04:24:51 37° NNE 04:27:28 10° ENE
Cosmos 1842 Rocket 3.5 04:21:59 24° S 04:24:40 89° NW 04:29:11 10° N
STARLINK-1173 4.5 04:25:37 27° NE 04:25:37 27° NE 04:27:23 10° ENE
STARLINK-1177 4.5 04:25:47 27° NE 04:25:47 27° NE 04:27:33 10° ENE
STARLINK-1167 4.4 04:26:35 28° NE 04:26:35 28° NE 04:28:23 10° ENE
Cosmos 2369 Rocket 2.1 04:20:47 12° NNW 04:26:07 80° WSW 04:31:50 10° SSE
STARLINK-1159 4.0 04:26:50 38° NNE 04:26:50 38° NNE 04:29:34 10° ENE
STARLINK-1171 4.0 04:28:59 38° NNE 04:28:59 38° NNE 04:31:48 10° ENE
STARLINK-1124 4.4 04:29:56 27° SSE 04:30:05 27° SE 04:32:39 10° E
NOSS 2-1 (C) 3.8 04:30:40 40° NNW 04:30:40 40° NNW 04:34:00 10° NNE
STARLINK-1136 4.2 04:31:18 30° NNE 04:31:18 30° NNE 04:33:19 10° ENE
STARLINK-1155 3.9 04:30:56 39° N 04:30:56 39° N 04:33:51 10° ENE
Meteor PRIRODA 4.0 04:27:42 10° NNE 04:31:25 64° ESE 04:35:03 10° S
Cosmos 1603 4.1 04:26:32 10° SSW 04:32:11 65° ESE 04:37:49 10° NNE
STARLINK-1166 3.9 04:33:09 39° N 04:33:09 39° N 04:36:09 10° ENE
Cosmos 921 Rocket 3.2 04:29:28 10° NNW 04:33:56 73° ENE 04:38:17 10° SSE
NOSS 2-1 (D) 3.8 04:34:39 38° NNW 04:34:39 38° NNW 04:38:04 10° NNE
IDEFIX/ARIANE 42P 3.9 04:30:55 10° N 04:34:07 23° NW 04:34:07 23° NW
STARLINK-1165 3.8 04:35:12 39° N 04:35:14 39° N 04:38:18 10° ENE
STARLINK-1072 4.5 04:34:51 24° SSE 04:35:22 26° SE 04:37:53 10° E
STARLINK-1096 4.5 04:35:04 24° SSE 04:35:35 26° SE 04:38:05 10° E
PAYLOAD A 4.3 04:31:30 10° N 04:36:03 42° WNW 04:36:42 40° W
STARLINK-1116 4.5 04:35:31 24° SSE 04:36:04 26° SE 04:38:35 10° E
CZ-4C R/B 3.4 04:34:38 25° NW 04:36:24 30° NNW 04:42:06 10° NE
STARLINK-1094 4.4 04:35:57 24° SSE 04:36:31 26° SE 04:39:02 10° E
STARLINK-1117 4.4 04:36:09 24° SSE 04:36:43 26° SE 04:39:15 10° E
STARLINK-1078 4.4 04:36:22 24° SSE 04:36:57 26° SE 04:39:28 10° E
Lacrosse 5 2.1 04:36:01 41° WSW 04:36:59 47° SW 04:41:50 10° SSE
Cosmos 2251 Rocket 3.9 04:36:06 39° W 04:37:02 42° WNW 04:42:06 10° NNE
STARLINK-1108 4.4 04:36:35 24° SSE 04:37:10 27° SE 04:39:43 10° E
Cosmos 1943 3.9 04:31:46 10° S 04:37:14 55° ESE 04:42:45 10° NE
STARLINK-1169 3.8 04:37:15 39° N 04:37:23 39° N 04:40:27 10° ENE
STARLINK-1071 4.4 04:36:48 24° SSE 04:37:23 26° SE 04:39:55 10° E
Cosmos 1633 3.2 04:34:00 10° N 04:37:37 56° ENE 04:41:12 10° SSE
STARLINK-1110 4.4 04:37:02 25° SSE 04:37:38 27° SE 04:40:10 10° E
ATLAS 2AS CENTAUR R/B 4.1 04:30:51 10° NW 04:38:01 37° NNE 04:44:44 10° E
STARLINK-1122 4.4 04:37:27 25° SSE 04:38:04 27° SE 04:40:38 10° E
STARLINK-1126 4.4 04:37:40 25° SSE 04:38:18 27° SE 04:40:51 10° E
STARLINK-1082 4.4 04:37:54 25° SSE 04:38:32 27° SE 04:41:05 10° E
STARLINK-1100 4.4 04:38:06 25° SSE 04:38:44 27° SE 04:41:18 10° E
STARLINK-1083 4.4 04:38:19 25° SSE 04:38:58 27° SE 04:41:32 10° E
STARLINK-1125 4.4 04:38:32 25° SSE 04:39:11 27° SE 04:41:45 10° E
STARLINK-1178 3.8 04:39:15 39° N 04:39:29 39° N 04:42:33 10° ENE
Cosmos 2263 4.1 04:34:44 10° NNW 04:40:29 83° WSW 04:46:07 10° SSE
Cosmos 1656 Rocket 4.0 04:35:03 10° NNW 04:40:44 69° ENE 04:46:24 10° SE
STARLINK-1120 3.8 04:41:13 38° NNW 04:41:31 39° N 04:44:36 10° ENE
COSMO-SKYMED 1 2.4 04:37:51 10° SSE 04:42:12 84° WSW 04:46:35 10° NNW
Cosmos 1802 Rocket 4.4 04:36:53 10° N 04:43:21 71° E 04:49:45 10° SSE
STARLINK-1131 3.8 04:43:22 37° NNW 04:43:47 39° N 04:46:51 10° ENE
STARLINK-1170 3.7 04:44:42 33° NNE 04:44:42 33° NNE 04:47:02 10° ENE
STARLINK-1190 3.8 04:45:30 36° NNW 04:46:00 40° N 04:49:05 10° ENE
Cosmos 2221 2.4 04:42:42 10° SSW 04:46:57 69° WNW 04:51:16 10° N
Cosmos 1862 4.5 04:43:28 10° N 04:47:17 44° ENE 04:51:05 10° SSE
CZ-2C R/B 2.9 04:43:15 10° N 04:48:06 40° WNW 04:50:10 28° WSW
Meteor 2-3 Rocket 3.9 04:43:30 10° NNW 04:48:59 47° W 04:54:30 10° SSW
Cosmos 2333 Rocket 4.3 04:49:47 11° NW 04:51:11 12° NNW 04:53:06 10° N
ADEOS Rocket 3.9 04:45:07 10° SE 04:51:18 58° ENE 04:58:12 10° N
ALOS 2.3 04:51:26 10° NNE 04:56:09 86° ESE 05:00:48 10° SSW
Cosmos 1484 Rocket 2.8 04:52:20 10° N 04:56:15 61° WNW 05:00:10 10° SSW
TELKOM 3 2.9 04:58:59 65° NNE 04:58:59 65° NNE 05:00:57 10° E
STARLINK-1179 3.5 05:04:27 30° NNW 05:05:11 37° N 05:07:41 10° E
STARLINK-1176 3.5 05:05:01 29° NNW 05:05:49 37° N 05:08:21 10° E
STARLINK-1129 3.8 05:05:59 25° NW 05:07:26 42° N 05:10:35 10° E
Cosmos 2016 Rocket 4.0 05:02:57 10° N 05:09:13 89° E 05:15:32 10° S
GEOS 3 Rocket 3.6 05:04:03 10° NE 05:09:19 69° NW 05:14:28 11° SW
STARLINK-1134 3.8 05:07:53 24° NW 05:09:24 43° N 05:12:34 10° E
STARLINK-1135 3.8 05:10:10 23° NW 05:11:48 43° N 05:14:57 10° E
Cosmos 1238 4.2 05:09:03 10° SSW 05:11:59 51° WNW 05:15:05 10° N
PSLV R/B 3.7 05:10:17 10° N 05:13:58 58° WNW 05:17:40 10° SSW
STARLINK-1141 3.7 05:12:25 22° NW 05:14:09 44° N 05:17:19 10° E
STARLINK-1140 3.7 05:14:30 21° NW 05:16:20 44° N 05:19:30 10° E
PAYLOAD B 4.4 05:10:50 10° NNE 05:16:28 80° ESE 05:22:01 10° SSW
Cosmos 1954 Rocket 4.4 05:12:47 10° SSW 05:18:04 71° ESE 05:23:24 10° NNE
Cosmos 2237 Rocket 4.0 05:16:08 12° NW 05:18:05 14° NNW 05:21:05 10° N
STARLINK-1156 3.7 05:16:43 20° NW 05:18:39 45° N 05:21:49 10° E
Cosmos 407 Rocket 3.5 05:14:09 10° SW 05:19:26 62° WNW 05:24:41 10° NNE
CZ-4B R/B 3.6 05:16:57 10° N 05:20:07 27° WNW 05:22:18 16° WSW
USA 215 3.9 05:14:08 10° ENE 05:20:18 45° N 05:25:50 13° WNW
Aureole 2 Rocket 3.2 05:20:04 23° W 05:20:23 23° WSW 05:22:58 10° SSW
Cosmos 1140 Rocket 3.4 05:15:23 10° SSW 05:20:38 80° WNW 05:25:56 10° NNE
STARLINK-1148 3.7 05:18:49 19° WNW 05:20:50 45° N 05:24:01 10° E
STARLINK-1113 4.4 05:19:07 10° SW 05:23:00 48° SE 05:26:53 10° ENE
STARLINK-1158 3.7 05:21:02 18° WNW 05:23:09 46° N 05:26:20 10° E
Meteor 2-2 Rocket 4.4 05:17:36 10° SSW 05:23:33 59° WNW 05:29:31 10° N
Meteor 1-31 Rocket 4.0 05:21:17 10° NNW 05:24:13 21° WNW 05:25:46 17° W
STARLINK-1102 4.4 05:21:51 10° SW 05:25:46 49° SSE 05:29:42 10° ENE
METEOR-M 4.1 05:20:38 10° N 05:25:55 61° WNW 05:31:10 10° SSW
Cosmos 2233 Rocket 4.5 05:20:39 10° N 05:26:54 67° ENE 05:33:10 10° SSE
Cosmos 1805 Rocket 3.8 05:23:17 10° NNW 05:27:26 45° W 05:31:34 10° SSW
STARLINK-1119 4.3 05:23:39 10° SW 05:27:33 51° SSE 05:31:28 10° ENE
ATLAS CENTAUR R/B 3.1 05:25:33 15° WNW 05:27:43 20° NNW 05:30:56 10° NNE
Sich 1 3.0 05:25:33 10° NNW 05:29:47 58° W 05:34:00 10° S
STARLINK-1111 4.3 05:26:31 10° SW 05:30:28 53° SSE 05:34:27 10° ENE
SKYMED 2 4.4 05:26:44 10° SSW 05:30:29 28° W 05:34:17 10° NW
STARLINK-1114 4.2 05:28:12 10° SW 05:32:08 55° SSE 05:36:05 10° ENE
STARLINK-1073 4.2 05:31:13 10° SW 05:35:13 57° SSE 05:39:13 10° ENE
SMAP 4.3 05:31:32 10° NNE 05:36:03 47° E 05:40:33 10° S
STARLINK-1130 (DARKSAT) 4.1 05:32:43 10° SW 05:36:41 58° SSE 05:40:38 10° ENE
Cosmos 2173 Rocket 4.4 05:31:53 10° NNW 05:37:45 42° W 05:43:30 10° SSW
H-2A R/B 3.9 05:34:52 10° NNW 05:38:10 21° WNW 05:41:33 10° WSW
STARLINK-1121 4.1 05:36:03 10° SW 05:40:03 60° SSE 05:44:05 10° ENE
Cosmos 1943 Rocket 3.5 05:37:26 10° WNW 05:40:56 17° W 05:44:25 10° SW
STARLINK-1084 4.0 05:37:15 10° SW 05:41:14 62° SSE 05:45:13 10° ENE
STARLINK-1153 3.2 05:38:52 13° WNW 05:41:22 51° NNE 05:44:14 10° E
STARLINK-1180 3.2 05:39:02 13° WNW 05:41:34 51° NNE 05:44:26 10° E
STARLINK-1118 2.2 05:39:19 12° WSW 05:41:35 87° NNW 05:44:07 10° ENE
STARLINK-1174 3.2 05:39:30 13° WNW 05:42:02 51° NNE 05:44:54 10° E
STARLINK-1139 3.2 05:39:43 13° WNW 05:42:15 51° NNE 05:45:08 10° E
Cosmos 2084 3.6 05:37:45 10° SW 05:42:16 87° SE 05:46:46 10° NE
STARLINK-1133 3.2 05:39:56 12° WNW 05:42:29 52° NNE 05:45:22 10° E
STARLINK-1151 3.2 05:40:10 12° WNW 05:42:44 52° NNE 05:45:37 10° E
STARLINK-1160 3.2 05:40:48 12° WNW 05:43:23 52° NNE 05:46:16 10° E
Cosmos 1190 Rocket 4.3 05:38:27 10° SW 05:43:33 47° WNW 05:48:41 10° NNE
STARLINK-1161 3.2 05:41:00 12° WNW 05:43:36 52° NNE 05:46:28 10° E
STARLINK-1145 3.2 05:41:14 12° WNW 05:43:50 52° NNE 05:46:43 10° E
STARLINK-1172 3.2 05:41:26 12° WNW 05:44:03 52° NNE 05:46:55 10° E
STARLINK-1182 3.2 05:41:53 12° WNW 05:44:31 53° NNE 05:47:23 10° E
STARLINK-1164 3.2 05:42:04 12° WNW 05:44:43 53° NNE 05:47:35 10° E
STARLINK-1106 4.0 05:40:47 10° SW 05:44:49 65° SSE 05:48:52 10° ENE
STARLINK-1168 3.2 05:42:18 12° WNW 05:44:57 53° NNE 05:47:49 10° E
Okean O Rocket 1.5 05:40:36 10° N 05:44:58 70° WNW 05:49:18 10° SSW
STARLINK-1183 3.2 05:42:57 12° WNW 05:45:37 53° NNE 05:48:30 10° E
STARLINK-1181 3.2 05:43:09 11° WNW 05:45:50 53° NNE 05:48:43 10° E
STARLINK-1149 3.0 05:43:41 12° WNW 05:46:10 55° NNE 05:48:52 10° E
STARLINK-1196 3.2 05:43:49 11° WNW 05:46:32 54° NNE 05:49:26 10° E
STARLINK-1186 3.2 05:44:16 11° WNW 05:46:59 54° NNE 05:49:52 10° E
STARLINK-1185 3.2 05:44:28 11° WNW 05:47:12 54° NNE 05:50:06 10° E
STARLINK-1175 3.2 05:44:40 11° WNW 05:47:26 54° NNE 05:50:18 10° E
STARLINK-1147 3.2 05:44:54 11° WNW 05:47:39 54° NNE 05:50:33 10° E
STARLINK-1146 3.2 05:45:07 11° WNW 05:47:54 55° NNE 05:50:47 10° E
Cosmos 1400 Rocket 2.8 05:43:57 10° SSW 05:47:56 66° WNW 05:52:02 10° N
STARLINK-1152 3.2 05:45:20 11° WNW 05:48:07 55° NNE 05:51:00 10° E
STARLINK-1195 3.1 05:45:33 11° WNW 05:48:20 55° NNE 05:51:13 10° E
STARLINK-1137 3.1 05:45:46 11° WNW 05:48:34 55° NNE 05:51:27 10° E
STARLINK-1142 3.1 05:46:00 11° WNW 05:48:48 55° NNE 05:51:41 10° E
Envisat 4.4 05:44:04 10° NNE 05:48:56 44° E 05:53:46 10° S
STARLINK-1127 3.1 05:46:12 11° WNW 05:49:01 55° NNE 05:51:54 10° E
Cosmos 1869 4.4 05:45:48 10° SW 05:49:03 24° WNW 05:52:18 10° NNW
STARLINK-1184 3.1 05:46:25 11° WNW 05:49:14 55° NNE 05:52:07 10° E
STARLINK-1193 3.1 05:46:39 10° WNW 05:49:28 55° NNE 05:52:22 10° E
STARLINK-1194 3.1 05:46:49 10° WNW 05:49:40 56° NNE 05:52:33 10° E
Cosmos 1606 3.8 05:45:59 10° S 05:49:40 49° E 05:53:21 10° NNE
STARLINK-1112 3.9 05:45:45 10° SW 05:49:47 69° SSE 05:53:51 10° ENE
Cosmos 1980 Rocket 4.5 05:48:23 10° N 05:51:51 16° NE 05:55:18 10° ENE
STARLINK-1132 2.9 05:51:22 10° WNW 05:54:07 61° NNE 05:56:52 10° ESE
Cosmos 468 Rocket 4.1 05:49:28 10° NNW 05:54:50 86° WSW 06:00:07 10° SSE
NOSS 3-4 (A) 4.4 05:48:12 10° NW 05:54:58 60° NE 06:02:25 10° ESE
NOSS 3-4 (C) 4.4 05:48:18 10° NW 05:55:04 59° NE 06:02:30 10° ESE
STARLINK-1150 2.8 05:53:50 10° WNW 05:56:37 63° NNE 05:59:22 10° ESE
STARLINK-1163 2.8 05:55:05 10° WNW 05:57:50 64° NNE 06:00:34 10° ESE
STARLINK-1162 3.2 05:55:43 10° WNW 05:58:55 62° NNE 06:02:06 10° E
Cosmos 1151 Rocket 3.0 05:54:58 10° S 05:59:17 87° W 06:03:40 10° N
Cosmos 1570 Rocket 4.5 05:55:11 10° NNW 06:00:31 68° ENE 06:05:50 10° SSE
FENGYUN 3A 4.3 05:55:59 10° N 06:00:49 34° WNW 06:05:39 10° SW
Cosmos 676 Rocket 4.2 05:55:48 10° SW 06:01:01 54° WNW 06:06:16 10° NNE
SL-16 R/B 3.9 05:57:46 10° WNW 06:01:13 16° NNW 06:04:41 10° N
